Location: *
(51.1248°S, 108.4023°W)
Time: 03:19:55
(UTC+00:00)

NOAA 11 - Pass Details

Date: 15 June 2021
Orbit: 833 x 850 km, 98.4° (Epoch: 31 July)

Event Time Altitude Azimuth Distance (km) Brightness Sun altitude
Rises 12:51:28 0° 358° (N) 3,384 7.5 -21.4°
Reaches altitude 10° 12:53:54 10° 352° (N) 2,459 6.7 -21.1°
Maximum altitude 12:59:10 47° 278° (W) 1,112 4.4 -20.2°
Enters shadow 13:01:15 33° 227° (SW) 1,416 4.9 -19.9°
